This demonstration page uses our WeatherBlox Daily Observations layout. Learn more.

Left ArrowRight Arrow

40.92945, -100.16068

Hourly Observations for January 15, 2017

Temp ( °F °C ) Dew Point ( °F °C ) Humidity (%) Winds ( mph kmh ) Pressure ( in mb ) Visibility ( mi km ) Precip ( " mm )
12:15 am 00:15 Cloudy 26 -3.3 21 -6 82 82 N N/A 30.48 1032 7 11 N/A
12:35 am 00:35 Cloudy 29 -1.8 23 -5.2 78 78 S 5 7 30.45 1031 10 16 N/A
12:55 am 00:55 Cloudy 29 -1.5 22 -5.5 74 74 SSE 5 7 30.45 1031 10 16 N/A
1:15 am 01:15 Cloudy 30 -1.3 22 -5.6 73 73 N N/A 30.42 1030 10 16 N/A
1:35 am 01:35 Cloudy 29 -1.5 21 -6.1 71 71 S 3 6 30.42 1030 10 16 N/A
1:55 am 01:55 Cloudy 29 -1.8 22 -5.8 74 74 N N/A 30.42 1030 10 16 N/A
2:15 am 02:15 Cloudy 29 -1.4 21 -6 71 71 S 3 6 30.42 1030 10 16 N/A
2:35 am 02:35 Cloudy 29 -1.8 21 -5.9 74 74 N N/A 30.39 1029 10 16 N/A
2:55 am 02:55 Cloudy 29 -1.9 20 -6.6 71 71 N N/A 30.39 1029 10 16 N/A
3:15 am 03:15 Partly Cloudy 25 -3.9 20 -6.6 82 82 NNE 6 9 30.42 1030 10 16 N/A
3:35 am 03:35 Partly Cloudy 25 -4 20 -6.5 83 83 N N/A 30.42 1030 10 16 N/A
3:55 am 03:55 Mostly Cloudy 25 -3.7 22 -5.7 86 86 N N/A 30.42 1030 10 16 N/A
4:15 am 04:15 Cloudy 26 -3.1 22 -5.7 82 82 N N/A 30.42 1030 10 16 N/A
4:35 am 04:35 Cloudy 27 -3 22 -5.5 83 83 N N/A 30.42 1030 10 16 N/A
4:55 am 04:55 Cloudy 28 -2.5 23 -5.1 83 83 N N/A 30.36 1028 10 16 N/A
5:15 am 05:15 Cloudy 28 -2 23 -5.2 79 79 N N/A 30.36 1028 10 16 N/A
5:35 am 05:35 Cloudy 29 -1.8 23 -5 79 79 N N/A 30.36 1028 10 16 N/A
5:55 am 05:55 Cloudy 29 -1.7 22 -5.7 74 74 S 3 6 30.39 1029 10 16 N/A
6:15 am 06:15 Cloudy 29 -1.6 21 -6 72 72 S 3 6 30.39 1029 10 16 N/A
6:35 am 06:35 Cloudy 29 -1.5 21 -6.3 70 70 N N/A 30.36 1028 10 16 N/A
6:55 am 06:55 Cloudy 29 -1.5 21 -6 72 72 SSE 3 6 30.36 1028 10 16 N/A
7:15 am 07:15 Cloudy 29 -1.5 21 -6.3 70 70 N N/A 30.36 1028 10 16 N/A
7:35 am 07:35 Cloudy 29 -1.5 20 -6.9 67 67 E 3 6 30.33 1027 10 16 N/A
7:55 am 07:55 Cloudy 29 -1.5 21 -6 72 72 ENE 5 7 30.33 1027 10 16 N/A
8:15 am 08:15 Cloudy 29 -1.6 22 -5.8 73 73 ESE 3 6 30.36 1028 10 16 N/A
8:35 am 08:35 Cloudy 29 -1.5 21 -6.1 71 71 E 3 6 30.33 1027 10 16 N/A
8:55 am 08:55 Cloudy 30 -1.2 22 -5.8 71 71 N N/A 30.36 1028 10 16 N/A
9:15 am 09:15 Cloudy 30 -1.1 22 -5.6 72 72 ESE 6 9 30.33 1027 10 16 N/A
9:35 am 09:35 Cloudy 30 -1.1 23 -5.2 74 74 SSE 8 13 30.36 1028 10 16 N/A
9:55 am 09:55 Cloudy 30 -1 23 -5 75 75 S 6 9 30.36 1028 10 16 N/A
10:15 am 10:15 Cloudy 30 -0.9 23 -4.8 75 75 SSE 5 7 30.36 1028 10 16 N/A
10:35 am 10:35 Cloudy 31 -0.8 24 -4.7 75 75 SE 6 9 30.33 1027 10 16 N/A
10:55 am 10:55 Cloudy 31 -0.5 23 -5.2 71 71 SSE 8 13 30.30 1026 10 16 N/A
11:15 am 11:15 Cloudy 31 -0.5 23 -5 72 72 SSE 7 11 30.30 1026 10 16 N/A
11:35 am 11:35 Cloudy 31 -0.7 23 -5 73 73 SE 3 6 30.33 1027 10 16 N/A
11:55 am 11:55 Cloudy 31 -0.5 23 -5 72 72 N N/A 30.27 1025 10 16 N/A
12:15 pm 12:15 Cloudy 31 -0.6 24 -4.7 74 74 SSE 3 6 30.27 1025 10 16 N/A
12:35 pm 12:35 Cloudy 31 -0.6 24 -4.3 76 76 SE 3 6 30.24 1024 10 16 N/A
12:55 pm 12:55 Cloudy 31 -0.6 25 -3.9 79 79 SSE 3 6 30.24 1024 10 16 N/A
1:15 pm 13:15 Cloudy with Light Wintry Mix 31 -0.8 26 -3.3 83 83 N N/A 30.24 1024 2 3 N/A
1:35 pm 13:35 Cloudy with Light Rain 30 -0.9 27 -2.6 88 88 N N/A 30.21 1023 3 5 0.02 0.51
1:55 pm 13:55 Cloudy with Light Wintry Mix 30 -0.9 27 -2.7 88 88 N N/A 30.21 1023 4 6 0.02 0.51
2:15 pm 14:15 Cloudy with Light Rain 31 -0.8 27 -2.6 88 88 N N/A 30.21 1023 4 6 N/A
2:35 pm 14:35 Cloudy with Light Wintry Mix 31 -0.7 28 -2.5 88 88 N N/A 30.18 1022 5 8 N/A
2:55 pm 14:55 Cloudy with Light Wintry Mix 31 -0.8 28 -2.4 89 89 N N/A 30.21 1023 4 6 N/A
3:15 pm 15:15 Cloudy with Light Wintry Mix 31 -0.7 28 -2 91 91 SE 3 6 30.18 1022 5 8 0.01 0.25
3:35 pm 15:35 Cloudy with Light Wintry Mix 31 -0.7 28 -2 91 91 E 3 6 30.18 1022 4 6 0.01 0.25
3:55 pm 15:55 Cloudy with Light Wintry Mix 31 -0.7 28 -2 91 91 N N/A 30.18 1022 4 6 0.01 0.25
4:15 pm 16:15 Cloudy with Light Wintry Mix 31 -0.7 28 -2 91 91 E 3 6 30.18 1022 4 6 0.01 0.25
4:35 pm 16:35 Cloudy with Light Wintry Mix 31 -0.7 29 -1.8 92 92 ESE 3 6 30.18 1022 4 6 0.02 0.51
4:55 pm 16:55 Cloudy with Light Wintry Mix 31 -0.8 28 -2 92 92 ESE 3 6 30.18 1022 5 8 0.02 0.51
5:15 pm 17:15 Cloudy with Light Wintry Mix 31 -0.7 28 -2 91 91 SE 3 6 30.18 1022 5 8 0.01 0.25
5:35 pm 17:35 Cloudy with Light Wintry Mix 31 -0.7 28 -2 91 91 ENE 5 7 30.18 1022 5 8 0.01 0.25
5:55 pm 17:55 Cloudy with Light Wintry Mix 31 -0.7 28 -2 91 91 ENE 3 6 30.18 1022 10 16 0.01 0.25
6:15 pm 18:15 Cloudy with Light Wintry Mix 31 -0.7 28 -2 91 91 E 3 6 30.15 1021 7 11 N/A
6:35 pm 18:35 Cloudy with Light Wintry Mix 31 -0.6 29 -1.8 92 92 E 3 6 30.15 1021 7 11 N/A
6:55 pm 18:55 Cloudy with Light Wintry Mix 31 -0.6 29 -1.7 92 92 E 3 6 30.15 1021 7 11 0.01 0.25
7:15 pm 19:15 Cloudy with Light Wintry Mix 31 -0.6 29 -1.7 92 92 E 5 7 30.15 1021 7 11 N/A
7:35 pm 19:35 Cloudy with Light Wintry Mix 31 -0.5 29 -1.6 92 92 E 5 7 30.15 1021 7 11 N/A
7:55 pm 19:55 Cloudy with Light Wintry Mix 31 -0.5 29 -1.6 92 92 E 3 6 30.15 1021 7 11 N/A
8:15 pm 20:15 Cloudy with Light Wintry Mix 31 -0.5 29 -1.5 93 93 N N/A 30.15 1021 4 6 0.01 0.25
8:35 pm 20:35 Cloudy with Light Wintry Mix 31 -0.4 29 -1.4 93 93 ESE 3 6 30.15 1021 4 6 0.02 0.51
8:55 pm 20:55 Cloudy with Light Wintry Mix 31 -0.3 30 -1.2 94 94 ESE 3 6 30.15 1021 4 6 0.02 0.51
9:15 pm 21:15 Cloudy with Light Wintry Mix 31 -0.3 30 -1.2 94 94 ESE 5 7 30.15 1021 4 6 0.01 0.25
9:35 pm 21:35 Cloudy with Light Wintry Mix 31 -0.3 30 -1.2 94 94 SE 3 6 30.15 1021 7 11 0.01 0.25
9:55 pm 21:55 Cloudy with Light Wintry Mix 31 -0.3 30 -1.2 94 94 SE 5 7 30.15 1021 7 11 0.01 0.25
10:15 pm 22:15 Cloudy with Light Wintry Mix 31 -0.3 30 -1.3 93 93 SE 3 6 30.15 1021 7 11 0.01 0.25
10:35 pm 22:35 Cloudy with Light Wintry Mix 31 -0.3 30 -1.3 93 93 ESE 5 7 30.15 1021 7 11 0.01 0.25
10:55 pm 22:55 Cloudy with Light Wintry Mix 32 -0.1 30 -1.1 93 93 N N/A 30.15 1021 4 6 0.02 0.51
11:15 pm 23:15 Cloudy with Light Wintry Mix 32 -0.2 30 -1.2 93 93 N N/A 30.15 1021 5 8 N/A
11:35 pm 23:35 Cloudy with Light Wintry Mix 32 -0.2 30 -1.2 93 93 N N/A 30.15 1021 7 11 N/A
11:55 pm 23:55 Cloudy 32 -0.2 30 -1.1 94 94 N N/A 30.15 1021 10 16 N/A

Powered by AerisWeather